Simultaneous Nadir Overpasses (SNOs) Predictions

Prediction of SNOs between FY3D and METOP-C Satellite Orbit:

Table of predicted SNOs for the next 14.0 days since TLE Epoch: 7/27/2019
Index Date (FY3D) Time (FY3D) Lat,Lon (FY3D) SZA (FY3D ) Date (METOP-C) Time (METOP-C) Lat,Lon (METOP-C) SZA (METOP-C ) Distance(km) Time Diff (sec)
1 07/27/2019 05:20:04 73.05, 92.26 53.95 07/27/2019 05:21:12 73.03, 92.35 53.91 3.46 68
2 07/27/2019 06:10:47 -73.01,-100.32 126.10 07/27/2019 06:11:53 -73.04,-100.32 126.08 3.61 66
3 07/27/2019 07:01:32 72.99, 67.01 53.90 07/27/2019 07:02:34 73.01, 66.96 53.91 2.72 62
4 07/27/2019 07:52:16 -73.00,-125.68 126.09 07/27/2019 07:53:15 -73.02,-125.70 126.08 2.29 59
5 07/27/2019 08:43:01 72.99, 41.66 53.91 07/27/2019 08:43:56 72.99, 41.58 53.91 2.70 55
6 07/27/2019 09:33:45 -72.99,-151.03 126.08 07/27/2019 09:34:37 -73.00,-151.08 126.08 1.82 52
7 07/27/2019 10:24:31 73.03, 16.20 53.97 07/27/2019 10:25:17 73.02, 16.30 53.95 3.55 46
8 07/27/2019 11:15:14 -72.98,-176.39 126.07 07/27/2019 11:15:59 -72.98,-176.47 126.09 2.70 45
9 07/27/2019 12:06:00 73.02, -9.16 53.98 07/27/2019 12:06:39 73.00, -9.08 53.95 3.33 39
10 07/27/2019 12:56:43 -72.97, 158.26 126.07 07/27/2019 12:57:20 -73.01, 158.26 126.04 3.46 37
11 07/27/2019 13:47:28 72.96, -34.41 53.93 07/27/2019 13:48:01 72.98, -34.47 53.95 2.78 33
12 07/27/2019 14:38:12 -72.97, 132.90 126.06 07/27/2019 14:38:42 -72.99, 132.87 126.05 2.24 30
13 07/27/2019 15:28:57 72.96, -59.76 53.94 07/27/2019 15:29:23 72.96, -59.85 53.95 2.93 26
14 07/27/2019 16:19:41 -72.96, 107.55 126.05 07/27/2019 16:20:04 -72.96, 107.49 126.05 2.00 23
15 07/27/2019 17:10:27 73.00, -85.22 54.00 07/27/2019 17:10:44 72.99, -85.13 53.99 3.32 17
16 07/27/2019 18:01:10 -72.95, 82.19 126.04 07/27/2019 18:01:26 -72.94, 82.10 126.05 2.97 16
17 07/27/2019 18:51:56 72.99,-110.58 54.01 07/27/2019 18:52:06 72.97,-110.51 53.99 3.24 10
18 07/27/2019 19:42:39 -72.94, 56.84 126.04 07/27/2019 19:42:47 -72.97, 56.83 126.01 3.32 8
19 07/27/2019 20:33:24 72.93,-135.83 53.96 07/27/2019 20:33:28 72.95,-135.89 53.98 2.86 4
20 07/27/2019 21:24:08 -72.94, 31.48 126.03 07/27/2019 21:24:09 -72.95, 31.44 126.01 2.22 1
21 07/27/2019 22:14:53 72.92,-161.18 53.97 07/27/2019 22:14:50 72.93,-161.28 53.98 3.16 3
22 07/27/2019 23:05:37 -72.93, 6.13 126.02 07/27/2019 23:05:31 -72.93, 6.06 126.01 2.18 6
23 07/27/2019 23:56:23 72.97, 173.36 54.03 07/27/2019 23:56:11 72.96, 173.45 54.02 3.12 12
24 07/28/2019 00:47:06 -72.92, -19.23 126.01 07/28/2019 00:46:53 -72.91, -19.32 126.01 3.23 13
25 07/28/2019 01:37:52 72.96, 148.00 54.04 07/28/2019 01:37:33 72.94, 148.06 54.02 3.20 19
26 07/28/2019 02:28:35 -72.91, -44.58 126.00 07/28/2019 02:28:14 -72.94, -44.60 125.97 3.19 21
27 07/28/2019 03:19:20 72.90, 122.75 53.99 07/28/2019 03:18:55 72.92, 122.68 54.02 2.96 25
28 07/28/2019 04:10:04 -72.91, -69.94 126.00 07/28/2019 04:09:36 -72.92, -69.98 125.97 2.23 28
29 07/28/2019 05:00:49 72.89, 97.40 54.00 07/28/2019 05:00:17 72.90, 97.30 54.02 3.38 32
30 07/28/2019 05:51:33 -72.90, -95.29 125.99 07/28/2019 05:50:58 -72.90, -95.37 125.98 2.37 35
31 07/28/2019 06:42:19 72.94, 71.94 54.07 07/28/2019 06:41:38 72.93, 72.02 54.06 2.95 41
32 07/28/2019 07:33:02 -72.89,-120.65 125.98 07/28/2019 07:32:20 -72.88,-120.75 125.98 3.48 42
33 07/28/2019 08:23:48 72.93, 46.58 54.07 07/28/2019 08:23:00 72.91, 46.63 54.06 3.19 48
34 07/28/2019 09:14:31 -72.88,-146.00 125.97 07/28/2019 09:13:41 -72.91,-146.03 125.93 3.08 50
35 07/28/2019 10:05:15 72.87, 21.33 54.03 07/28/2019 10:04:21 72.88, 21.25 54.06 3.07 54
36 07/28/2019 10:55:59 -72.88,-171.36 125.97 07/28/2019 10:55:02 -72.89,-171.41 125.94 2.26 57
37 07/28/2019 11:46:45 72.91, -4.13 54.09 07/28/2019 11:45:42 72.91, -4.03 54.10 3.39 63
38 07/28/2019 12:37:28 -72.87, 163.29 125.96 07/28/2019 12:36:24 -72.87, 163.21 125.94 2.56 64
39 07/28/2019 13:28:14 72.91, -29.48 54.10 07/28/2019 13:27:04 72.89, -29.41 54.10 2.82 70
40 07/28/2019 14:18:57 -72.86, 137.93 125.95 07/28/2019 14:17:46 -72.85, 137.82 125.94 3.72 71
41 07/28/2019 15:09:41 72.80, -54.63 53.99 07/28/2019 15:08:27 72.82, -54.90 54.05 9.37 74
42 07/28/2019 16:00:23 -72.70, 112.89 126.11 07/28/2019 15:59:10 -72.73, 112.23 126.03 21.96 73
43 07/28/2019 16:51:05 72.54, -79.46 53.72 07/28/2019 16:49:54 72.55, -80.80 53.83 44.82 71
44 07/28/2019 17:41:47 -72.44, 88.05 126.38 07/28/2019 17:40:37 -72.45, 86.33 126.25 57.51 70
45 07/28/2019 18:32:29 72.27,-104.31 53.45 07/28/2019 18:31:21 72.27,-106.69 53.60 80.66 68
46 07/28/2019 19:23:11 -72.18, 63.19 126.65 07/28/2019 19:22:04 -72.18, 60.45 126.47 93.23 67




NCC Satellite Simultaneous Nadir Overpasses (SNOs) Prediction Service
